DW6839 Weather Reports


Display with metric or nautical units.
time (UTC)temp
F
wind
direction
speed
MPH
gust
MPH
rain 1hr
in
rain 24hr
in
rain mn
in
humidity
%
barometer
mb
20210724172015 81 314 0.0 3.0 0.00 0.00 0.00 58 1019.3
20210724171015 81 59 0.0 1.0 0.00 0.00 0.00 51 1019.4
20210724170015 81 66 0.0 1.0 0.00 0.00 0.00 54 1019.4
20210724165015 81 6 0.0 5.0 0.00 0.00 0.00 57 1019.6
20210724164015 80 325 0.0 4.0 0.00 0.00 0.00 53 1019.8
20210724163015 79 0.0 2.0 0.00 0.00 0.00 57 1019.8
20210724162015 80 352 0.0 4.0 0.00 0.00 0.00 57 1019.8
20210724161015 79 0.0 0.0 0.00 0.00 0.00 56 1019.8
20210724160015 79 338 0.0 1.0 0.00 0.00 0.00 57 1019.8
20210724155015 79 0.0 1.0 0.00 0.00 0.00 58 1019.8
20210724154015 79 360 0.0 1.0 0.00 0.00 0.00 62 1019.8
20210724153015 77 0.0 2.0 0.00 0.00 0.00 61 1019.8
20210724152015 77 331 0.0 1.0 0.00 0.00 0.00 63 1019.8
20210724151015 77 345 0.0 4.0 0.00 0.00 0.00 65 1019.8
20210724150015 77 196 0.0 1.0 0.00 0.00 0.00 66 1020.0
20210724145015 76 0.0 1.0 0.00 0.00 0.00 68 1020.2
20210724144015 75 0.0 1.0 0.00 0.00 0.00 73 1020.2
20210724143015 73 232 0.0 1.0 0.00 0.00 0.00 73 1020.3
20210724142015 72 0.0 1.0 0.00 0.00 0.00 76 1020.2
20210724141015 71 0.0 1.0 0.00 0.00 0.00 77 1020.3
20210724140015 69 0.0 1.0 0.00 0.00 0.00 79 1020.3
20210724135015 69 0.0 0.0 0.00 0.00 0.00 81 1020.2
20210724134015 68 0.0 0.0 0.00 0.00 0.00 83 1020.2
20210724133015 67 313 0.0 3.0 0.00 0.00 0.00 84 1020.2
20210724132015 66 0.0 0.0 0.00 0.00 0.00 88 1020.1
20210724131015 65 311 0.0 3.0 0.00 0.00 0.00 91 1020.2
20210724130015 63 0.0 0.0 0.00 0.00 0.00 95 1020.1
20210724125015 63 0.0 1.0 0.00 0.00 0.00 97 1019.9
20210724124015 62 327 0.0 2.0 0.00 0.00 0.00 97 1019.9
20210724123015 62 0.0 2.0 0.00 0.00 0.00 97 1019.9
20210724122015 61 0.0 0.0 0.00 0.00 0.00 98 1019.8
20210724121015 61 0.0 0.0 0.00 0.00 0.00 98 1019.7
20210724120015 60 330 0.0 1.0 0.00 0.00 0.00 98 1019.7
20210724115015 59 0.0 0.0 0.00 0.00 0.00 98 1019.6
20210724114015 59 0.0 0.0 0.00 0.00 0.00 98 1019.7
20210724113015 58 331 0.0 1.0 0.00 0.00 0.00 97 1019.8
20210724112015 57 0.0 0.0 0.00 0.00 0.00 97 1019.8
20210724111015 56 0.0 0.0 0.00 0.00 0.00 97 1019.8
20210724110015 56 0.0 0.0 0.00 0.00 0.00 97 1019.8
20210724105015 56 0.0 0.0 0.00 0.00 0.00 97 1019.8
20210724104015 55 0.0 0.0 0.00 0.00 0.00 97 1019.8
20210724103015 55 0.0 0.0 0.00 0.00 0.00 97 1019.6
20210724102015 55 0.0 0.0 0.00 0.00 0.00 97 1019.6
20210724101015 55 0.0 0.0 0.00 0.00 0.00 97 1019.6
20210724100015 55 0.0 0.0 0.00 0.00 0.00 96 1019.6
20210724095015 55 0.0 0.0 0.00 0.00 0.00 96 1019.5
20210724094014 55 0.0 0.0 0.00 0.00 0.00 96 1019.4
20210724093014 55 0.0 0.0 0.00 0.00 0.00 96 1019.3
20210724092015 55 0.0 0.0 0.00 0.00 0.00 96 1019.2
20210724091014 56 0.0 0.0 0.00 0.00 0.00 96 1019.1
20210724090015 56 0.0 0.0 0.00 0.00 0.00 96 1019.1
20210724085015 56 0.0 0.0 0.00 0.00 0.00 96 1019.0
20210724084015 56 0.0 0.0 0.00 0.00 0.00 96 1019.0
20210724083015 56 0.0 0.0 0.00 0.00 0.00 96 1019.0
20210724082015 56 0.0 0.0 0.00 0.00 0.00 96 1019.0
20210724081014 56 0.0 0.0 0.00 0.00 0.00 96 1018.9
20210724080017 56 0.0 0.0 0.00 0.00 0.00 96 1019.0
20210724075016 57 0.0 0.0 0.00 0.00 0.00 95 1018.9
20210724074016 57 0.0 0.0 0.00 0.00 0.00 96 1019.0
20210724073017 57 0.0 0.0 0.00 0.00 0.00 96 1018.9
20210724072017 57 0.0 0.0 0.00 0.00 0.00 95 1018.8
20210724071016 57 0.0 0.0 0.00 0.00 0.00 95 1018.7
20210724070017 57 0.0 0.0 0.00 0.00 0.00 95 1018.7
20210724065017 58 0.0 0.0 0.00 0.00 0.00 95 1018.7
20210724064017 58 0.0 0.0 0.00 0.00 0.00 95 1018.7
20210724063017 58 0.0 0.0 0.00 0.00 0.00 95 1018.8
20210724062017 58 0.0 0.0 0.00 0.00 0.00 95 1018.9
20210724061017 58 0.0 0.0 0.00 0.00 0.00 95 1018.9
20210724060017 59 0.0 0.0 0.00 0.00 0.00 95 1018.9
20210724055016 59 0.0 0.0 0.00 0.00 0.00 95 1018.9
20210724054017 59 0.0 0.0 0.00 0.00 0.00 95 1018.9
20210724053016 59 0.0 0.0 0.00 0.00 0.00 95 1019.0
20210724052017 59 0.0 0.0 0.00 0.00 0.00 95 1019.0
20210724051016 60 0.0 0.0 0.00 0.00 0.00 95 1019.1
20210724050017 60 0.0 0.0 0.00 0.00 0.00 94 1019.0
20210724045016 60 0.0 0.0 0.00 0.00 0.00 94 1019.2
20210724044016 60 0.0 0.0 0.00 0.00 0.00 94 1019.2
20210724043017 61 0.0 0.0 0.00 0.00 0.00 94 1019.2
20210724042016 61 0.0 0.0 0.00 0.00 0.00 94 1019.2
20210724041017 61 0.0 0.0 0.00 0.00 0.00 94 1019.3
20210724040017 61 0.0 0.0 0.00 0.00 0.00 94 1019.3
20210724035015 61 0.0 0.0 0.00 0.00 0.00 93 1019.3
20210724034015 62 0.0 0.0 0.00 0.00 0.00 93 1019.2
20210724033015 62 0.0 0.0 0.00 0.00 0.00 93 1019.2
20210724032015 62 0.0 0.0 0.00 0.00 0.00 93 1019.3
20210724031015 62 0.0 0.0 0.00 0.00 0.00 92 1019.4
20210724030015 63 0.0 0.0 0.00 0.00 0.00 92 1019.5
20210724025015 63 0.0 0.0 0.00 0.00 0.00 93 1019.6
20210724024015 63 0.0 0.0 0.00 0.00 0.00 93 1019.9
20210724023015 63 339 0.0 2.0 0.00 0.00 0.00 93 1019.9
20210724022015 63 0.0 0.0 0.00 0.00 0.00 93 1019.9
20210724021015 63 0.0 0.0 0.00 0.00 0.00 93 1019.9
20210724020015 64 0.0 0.0 0.00 0.00 0.00 93 1019.8
20210724015015 64 0.0 1.0 0.00 0.00 0.00 93 1019.6
20210724014015 64 0.0 0.0 0.00 0.00 0.00 92 1019.2
20210724013015 64 0.0 0.0 0.00 0.00 0.00 92 1018.9
20210724012015 64 0.0 0.0 0.00 0.00 0.00 91 1018.9
20210724011015 65 0.0 0.0 0.00 0.00 0.00 90 1018.9
20210724010015 65 0.0 0.0 0.00 0.00 0.00 90 1018.8
20210724005016 65 0.0 0.0 0.00 0.00 0.00 89 1018.7
20210724004015 66 0.0 0.0 0.00 0.00 0.00 88 1018.7
20210724003015 66 0.0 0.0 0.00 0.00 0.00 87 1018.6
20210724002015 67 0.0 0.0 0.00 0.00 0.00 86 1018.5
20210724001015 68 0.0 0.0 0.00 0.00 0.00 85 1018.5
20210724000015 68 0.0 0.0 0.00 0.00 0.00 84 1018.4
20210723235015 68 0.0 0.0 0.00 0.00 0.00 83 1018.2
20210723234015 69 0.0 0.0 0.00 0.00 0.00 81 1018.2
20210723233015 69 0.0 0.0 0.00 0.00 0.00 81 1018.1
20210723232016 70 0.0 0.0 0.00 0.00 0.00 79 1018.1
20210723231015 71 0.0 0.0 0.00 0.00 0.00 78 1018.2
20210723230016 71 0.0 0.0 0.00 0.00 0.00 76 1018.1
20210723225015 71 0.0 0.0 0.00 0.00 0.00 76 1018.0
20210723224015 72 0.0 0.0 0.00 0.00 0.00 76 1018.0
20210723223015 72 0.0 0.0 0.00 0.00 0.00 73 1018.1
20210723222015 72 0.0 3.0 0.00 0.00 0.00 73 1018.3
20210723221015 72 324 0.0 1.0 0.00 0.00 0.00 76 1018.3
20210723220015 72 331 0.0 3.0 0.00 0.00 0.00 82 1018.3
20210723215015 73 0.0 0.0 0.00 0.00 0.00 81 1018.2
20210723214016 73 0.0 0.0 0.00 0.00 0.00 78 1018.1
20210723213015 73 0.0 0.0 0.00 0.00 0.00 78 1018.0
20210723212015 73 0.0 0.0 0.00 0.00 0.00 76 1017.9
20210723211015 74 0.0 0.0 0.00 0.00 0.00 73 1017.8
20210723210015 74 0.0 0.0 0.00 0.00 0.00 69 1017.6
20210723205015 75 0.0 1.0 0.00 0.00 0.00 63 1017.5
20210723204015 76 0.0 2.0 0.00 0.00 0.00 60 1017.6
20210723203015 76 331 1.0 4.0 0.00 0.00 0.00 64 1017.6
20210723202015 75 326 0.0 1.0 0.00 0.00 0.00 67 1017.6
20210723201015 75 0.0 1.0 0.00 0.00 0.00 64 1017.5
20210723200015 76 0.0 0.0 0.00 0.00 0.00 63 1017.6
20210723195015 77 0.0 4.0 0.00 0.00 0.00 55 1017.7
20210723194015 77 290 0.0 1.0 0.00 0.00 0.00 57 1017.8
20210723193015 77 270 0.0 6.0 0.00 0.00 0.00 57 1017.8
20210723192015 77 283 0.0 1.0 0.00 0.00 0.00 56 1017.9
20210723191015 76 271 0.0 4.0 0.00 0.00 0.00 60 1018.0
20210723190015 75 0.0 1.0 0.00 0.00 0.00 59 1018.1
20210723185015 75 251 0.0 3.0 0.00 0.00 0.00 58 1018.0
20210723184015 72 304 0.0 6.0 0.00 0.00 0.00 64 1018.0
20210723183016 74 0.0 5.0 0.00 0.00 0.00 62 1018.0
20210723182015 76 316 1.0 10.0 0.00 0.00 0.00 56 1018.0
20210723181015 79 309 0.0 2.0 0.00 0.00 0.00 58 1017.9
20210723180015 80 0.0 0.0 0.00 0.00 0.00 52 1017.8
20210723175016 81 0.0 0.0 0.00 0.00 0.00 52 1017.7
20210723174015 81 0.0 0.0 0.00 0.00 0.00 52 1017.8
20210723173015 81 308 0.0 2.0 0.00 0.00 0.00 51 1017.9